Location: ?????????
(55.6553°N, 38.9075°E)
Time: 21:32:14
(UTC+00:00)

Cosmos 614 Rocket - Pass Details

Date: 18 October 2019
Orbit: 734 x 763 km, 74.1° (Epoch: 19 November)

Event Time Altitude Azimuth Distance (km) Brightness Sun altitude
Rises 03:19:56 0° 228° (SW) 3,221 6.8 -6.4°
Reaches altitude 10° 03:22:25 10° 235° (SW) 2,297 6.0 -6.0°
Maximum altitude 03:27:24 45° 308° (NW) 1,041 4.4 -5.3°
Drops below altitude 10° 03:32:24 10° 21° (NNE) 2,298 6.6 -4.6°
Sets 03:34:53 0° 28° (NNE) 3,222 7.5 -4.3°
